This is the latest recevied weather packets stored in our database for station/object DO1SC. If no packets are shown the sender has not sent any weather packets the latest 10 day(s).
| Time | Temp. | Humidity | Pressure | Rain* | Wind** | Luminosity | Snow |
|---|---|---|---|---|---|---|---|
| 1777114527 | 16.11° C | 24% | 1017.6 hPa | - | - | 595 W/m² | - |
| 1777113919 | 15.56° C | 24% | 1017.7 hPa | - | - | 637 W/m² | - |
| 1777113334 | 15.56° C | 24% | 1017.7 hPa | - | - | 632 W/m² | - |
| 1777112722 | 15.56° C | 25% | 1017.7 hPa | - | - | 572 W/m² | - |
| 1777112134 | 15.56° C | 24% | 1017.7 hPa | - | - | 513 W/m² | - |
| 1777111526 | 16.11° C | 25% | 1017.7 hPa | - | - | 604 W/m² | - |
| 1777110920 | 15° C | 23% | 1017.7 hPa | - | - | 587 W/m² | - |
| 1777110328 | 15.56° C | 23% | 1017.8 hPa | - | - | 532 W/m² | - |
| 1777109720 | 15° C | 23% | 1017.6 hPa | - | - | 604 W/m² | - |
| 1777109132 | 15° C | 24% | 1017.6 hPa | - | - | 509 W/m² | - |
| 1777108523 | 15° C | 21% | 1017.7 hPa | - | - | 487 W/m² | - |
| 1777107935 | 15° C | 23% | 1017.6 hPa | - | - | 411 W/m² | - |
| 1777107329 | 14.44° C | 23% | 1017.6 hPa | - | - | 489 W/m² | - |
| 1777106718 | 14.44° C | 25% | 1017.7 hPa | - | - | 503 W/m² | - |
| 1777106129 | 13.89° C | 25% | 1017.8 hPa | - | - | 469 W/m² | - |
| 1777105524 | 13.33° C | 25% | 1017.8 hPa | - | - | 479 W/m² | - |
| 1777104933 | 13.33° C | 23% | 1018 hPa | - | - | 456 W/m² | - |
| 1777104324 | 13.33° C | 26% | 1017.8 hPa | - | - | 426 W/m² | - |
| 1777103720 | 12.78° C | 26% | 1017.8 hPa | - | - | 409 W/m² | - |
| 1777103129 | 12.22° C | 29% | 1018 hPa | - | - | 383 W/m² | - |
| 1777102523 | 12.22° C | 29% | 1017.8 hPa | - | - | 355 W/m² | - |
| 1777101932 | 11.67° C | 31% | 1017.9 hPa | - | - | 309 W/m² | - |
| 1777101327 | 11.67° C | 30% | 1017.9 hPa | - | - | 296 W/m² | - |
| 1777100735 | 11.11° C | 30% | 1017.9 hPa | - | - | 248 W/m² | - |
| 1777100129 | 11.67° C | 32% | 1017.9 hPa | - | - | 125 W/m² | - |
* Rain since midnight (hover to see other rain measurements)
** Current wind speed in m/s (hover to see current wind gust speed)